Time,TemperatureF,DewpointF,PressureIn,WindDirection,WindDirectionDegrees,WindSpeedMPH,WindSpeedGustMPH,Humidity,HourlyPrecipIn,Conditions,Clouds,dailyrainin,SoftwareType,DateUTC
2013-06-22 00:00:00,56.7,-99.9,30.09,NNE,28,0.0,0.0,-999,0.00,,,0.04,homebrew,2013-06-22 07:00:00,
2013-06-22 00:05:00,56.3,-99.9,30.09,SE,133,0.4,3.4,-999,0.00,,,0.04,homebrew,2013-06-22 07:05:00,
2013-06-22 00:10:00,56.0,-99.9,30.09,SW,230,0.0,0.0,-999,0.00,,,0.04,homebrew,2013-06-22 07:10:00,
2013-06-22 00:15:00,55.8,-99.9,30.09,SW,230,0.0,0.0,-999,0.00,,,0.04,homebrew,2013-06-22 07:15:00,
2013-06-22 00:20:00,55.6,-99.9,30.09,SW,230,0.0,0.0,-999,0.00,,,0.04,homebrew,2013-06-22 07:20:00,
2013-06-22 00:25:00,55.5,-99.9,30.09,SW,230,0.0,0.0,-999,0.00,,,0.04,homebrew,2013-06-22 07:25:00,
2013-06-22 00:30:00,55.5,-99.9,30.09,SW,230,0.0,0.0,-999,0.00,,,0.04,homebrew,2013-06-22 07:30:00,
2013-06-22 00:40:00,55.4,-99.9,30.09,SW,230,0.0,0.0,-999,0.00,,,0.00,homebrew,2013-06-22 07:40:00,
2013-06-22 00:45:00,55.1,-99.9,30.09,SW,230,0.0,0.0,-999,0.00,,,0.00,homebrew,2013-06-22 07:45:00,
2013-06-22 00:50:00,55.2,-99.9,30.09,SW,230,0.0,0.0,-999,0.00,,,0.00,homebrew,2013-06-22 07:50:00,
2013-06-22 00:55:00,55.1,-99.9,30.09,SW,230,0.0,0.0,-999,0.00,,,0.00,homebrew,2013-06-22 07:55:00,
2013-06-22 01:00:00,55.0,-99.9,30.09,SW,230,0.0,0.0,-999,0.00,,,0.00,homebrew,2013-06-22 08:00:00,
2013-06-22 01:05:00,54.7,-99.9,30.09,SW,230,0.0,0.0,-999,0.00,,,0.00,homebrew,2013-06-22 08:05:00,
2013-06-22 01:10:00,54.6,-99.9,30.09,SE,125,0.1,1.7,-999,0.00,,,0.00,homebrew,2013-06-22 08:10:00,
2013-06-22 01:15:00,54.7,-99.9,30.09,NE,35,0.0,0.7,-999,0.00,,,0.00,homebrew,2013-06-22 08:15:00,
2013-06-22 01:20:00,54.7,-99.9,30.09,NNE,33,0.0,0.0,-999,0.00,,,0.00,homebrew,2013-06-22 08:20:00,
2013-06-22 01:30:00,54.8,-99.9,30.09,NNE,33,0.0,0.0,-999,0.00,,,0.00,homebrew,2013-06-22 08:30:00,
2013-06-22 01:35:00,54.6,-99.9,30.09,NE,49,0.4,3.7,-999,0.00,,,0.00,homebrew,2013-06-22 08:35:00,
2013-06-22 01:45:00,54.5,-99.9,30.09,NE,47,0.6,2.7,-999,0.00,,,0.00,homebrew,2013-06-22 08:45:00,
2013-06-22 01:50:00,54.6,-99.9,30.09,NNE,28,0.0,0.0,-999,0.00,,,0.00,homebrew,2013-06-22 08:50:00,
2013-06-22 01:55:00,54.6,-99.9,30.09,ENE,77,0.1,1.1,-999,0.00,,,0.00,homebrew,2013-06-22 08:55:00,
2013-06-22 02:00:00,54.5,-99.9,30.09,ESE,102,0.0,0.0,-999,0.00,,,0.00,homebrew,2013-06-22 09:00:00,
2013-06-22 02:05:00,54.5,-99.9,30.09,ESE,102,0.0,0.0,-999,0.00,,,0.00,homebrew,2013-06-22 09:05:00,
2013-06-22 02:15:00,54.6,-99.9,30.09,ESE,102,0.0,0.0,-999,0.00,,,0.00,homebrew,2013-06-22 09:15:00,
2013-06-22 02:20:00,54.5,-99.9,30.09,ESE,102,0.0,0.0,-999,0.00,,,0.00,homebrew,2013-06-22 09:20:00,
2013-06-22 02:30:00,54.2,-99.9,30.09,ESE,102,0.0,0.0,-999,0.00,,,0.00,homebrew,2013-06-22 09:30:00,
2013-06-22 02:35:00,54.1,-99.9,30.09,ESE,102,0.0,0.0,-999,0.00,,,0.00,homebrew,2013-06-22 09:35:00,
2013-06-22 02:40:00,54.1,-99.9,30.09,ESE,102,0.0,0.0,-999,0.00,,,0.00,homebrew,2013-06-22 09:40:00,
2013-06-22 02:50:00,53.9,-99.9,30.09,ESE,102,0.0,0.0,-999,0.00,,,0.00,homebrew,2013-06-22 09:50:00,
2013-06-22 02:55:00,53.7,-99.9,30.09,ESE,102,0.0,0.0,-999,0.00,,,0.00,homebrew,2013-06-22 09:55:00,
2013-06-22 03:00:00,53.4,-99.9,30.09,ESE,102,0.0,0.0,-999,0.00,,,0.00,homebrew,2013-06-22 10:00:00,
2013-06-22 03:05:00,53.4,-99.9,30.09,ESE,102,0.0,0.0,-999,0.00,,,0.00,homebrew,2013-06-22 10:05:00,
2013-06-22 03:10:00,53.3,-99.9,30.09,ESE,102,0.0,0.0,-999,0.00,,,0.00,homebrew,2013-06-22 10:10:00,
2013-06-22 03:20:00,53.3,-99.9,30.08,NE,45,0.0,0.2,-999,0.00,,,0.00,homebrew,2013-06-22 10:20:00,
2013-06-22 03:25:00,53.2,-99.9,30.08,NE,45,0.0,0.0,-999,0.00,,,0.00,homebrew,2013-06-22 10:25:00,
2013-06-22 03:30:00,53.0,-99.9,30.08,NE,46,0.1,0.0,-999,0.00,,,0.00,homebrew,2013-06-22 10:30:00,
2013-06-22 03:40:00,53.1,-99.9,30.08,East,87,2.1,4.8,-999,0.00,,,0.00,homebrew,2013-06-22 10:40:00,
2013-06-22 03:45:00,53.2,-99.9,30.08,East,90,2.0,3.7,-999,0.00,,,0.00,homebrew,2013-06-22 10:45:00,
2013-06-22 03:55:00,52.9,-99.9,30.07,East,82,2.3,3.7,-999,0.00,,,0.00,homebrew,2013-06-22 10:55:00,
2013-06-22 04:00:00,52.7,-99.9,30.07,ENE,67,1.1,3.4,-999,0.00,,,0.00,homebrew,2013-06-22 11:00:00,
2013-06-22 04:05:00,52.7,-99.9,30.07,ENE,73,2.2,3.7,-999,0.00,,,0.00,homebrew,2013-06-22 11:05:00,
2013-06-22 04:10:00,52.8,-99.9,30.07,East,84,2.5,4.4,-999,0.00,,,0.00,homebrew,2013-06-22 11:10:00,
2013-06-22 04:15:00,52.7,-99.9,30.07,ENE,78,2.3,3.9,-999,0.00,,,0.00,homebrew,2013-06-22 11:15:00,
2013-06-22 04:20:00,52.8,-99.9,30.07,ENE,74,1.7,4.3,-999,0.00,,,0.00,homebrew,2013-06-22 11:20:00,
2013-06-22 04:30:00,53.0,-99.9,30.07,East,89,1.6,3.6,-999,0.00,,,0.00,homebrew,2013-06-22 11:30:00,
2013-06-22 04:35:00,52.8,-99.9,30.07,ENE,65,0.8,3.2,-999,0.00,,,0.00,homebrew,2013-06-22 11:35:00,
2013-06-22 04:45:00,52.9,-99.9,30.07,East,84,2.7,4.5,-999,0.00,,,0.00,homebrew,2013-06-22 11:45:00,
2013-06-22 04:50:00,52.9,-99.9,30.06,East,100,1.1,3.1,-999,0.00,,,0.00,homebrew,2013-06-22 11:50:00,
2013-06-22 04:55:00,52.7,-99.9,30.07,East,80,0.7,2.4,-999,0.00,,,0.00,homebrew,2013-06-22 11:55:00,
2013-06-22 05:00:00,52.5,-99.9,30.06,East,80,0.8,4.3,-999,0.00,,,0.00,homebrew,2013-06-22 12:00:00,
2013-06-22 05:05:00,52.7,-99.9,30.06,ENE,73,0.7,3.5,-999,0.00,,,0.00,homebrew,2013-06-22 12:05:00,
2013-06-22 05:10:00,52.6,-99.9,30.06,ENE,64,0.0,0.0,-999,0.00,,,0.00,homebrew,2013-06-22 12:10:00,
2013-06-22 05:20:00,52.4,-99.9,30.06,ENE,64,0.0,0.0,-999,0.00,,,0.00,homebrew,2013-06-22 12:20:00,
2013-06-22 05:25:00,52.4,-99.9,30.07,ENE,64,0.0,0.0,-999,0.00,,,0.00,homebrew,2013-06-22 12:25:00,
2013-06-22 05:35:00,52.3,-99.9,30.07,ENE,64,0.0,0.0,-999,0.00,,,0.00,homebrew,2013-06-22 12:35:00,
2013-06-22 05:40:00,52.2,-99.9,30.07,ENE,64,0.0,0.0,-999,0.00,,,0.00,homebrew,2013-06-22 12:40:00,
2013-06-22 05:45:00,52.2,-99.9,30.06,ENE,64,0.0,0.0,-999,0.00,,,0.00,homebrew,2013-06-22 12:45:00,
2013-06-22 05:50:00,52.2,-99.9,30.06,ENE,64,0.0,0.0,-999,0.00,,,0.00,homebrew,2013-06-22 12:50:00,
2013-06-22 05:55:00,52.3,-99.9,30.06,ENE,64,0.0,0.0,-999,0.00,,,0.00,homebrew,2013-06-22 12:55:00,
2013-06-22 06:00:00,52.7,-99.9,30.06,ENE,64,0.0,0.0,-999,0.00,,,0.00,homebrew,2013-06-22 13:00:00,
2013-06-22 06:05:00,53.1,-99.9,30.06,ENE,64,0.0,0.0,-999,0.00,,,0.00,homebrew,2013-06-22 13:05:00,
2013-06-22 06:10:00,53.4,-99.9,30.06,ENE,64,0.0,0.0,-999,0.00,,,0.00,homebrew,2013-06-22 13:10:00,
2013-06-22 06:15:00,53.3,-99.9,30.06,ENE,64,0.0,0.0,-999,0.00,,,0.00,homebrew,2013-06-22 13:15:00,
2013-06-22 06:25:00,53.3,-99.9,30.06,ENE,64,0.0,0.0,-999,0.00,,,0.00,homebrew,2013-06-22 13:25:00,
2013-06-22 06:30:00,53.1,-99.9,30.06,ENE,64,0.0,0.0,-999,0.00,,,0.00,homebrew,2013-06-22 13:30:00,
2013-06-22 06:40:00,53.2,-99.9,30.06,ENE,64,0.0,0.0,-999,0.00,,,0.00,homebrew,2013-06-22 13:40:00,
2013-06-22 06:45:00,53.6,-99.9,30.06,ENE,64,0.0,0.0,-999,0.00,,,0.00,homebrew,2013-06-22 13:45:00,
2013-06-22 06:50:00,54.6,-99.9,30.06,ENE,64,0.0,0.0,-999,0.00,,,0.00,homebrew,2013-06-22 13:50:00,
2013-06-22 06:55:00,54.8,-99.9,30.06,ENE,64,0.0,0.0,-999,0.00,,,0.00,homebrew,2013-06-22 13:55:00,
2013-06-22 07:00:00,54.8,-99.9,30.06,ENE,64,0.0,0.0,-999,0.00,,,0.00,homebrew,2013-06-22 14:00:00,
2013-06-22 07:10:00,56.2,-99.9,30.06,ENE,64,0.0,0.0,-999,0.00,,,0.00,homebrew,2013-06-22 14:10:00,
2013-06-22 07:15:00,56.8,-99.9,30.06,ENE,64,0.0,0.0,-999,0.00,,,0.00,homebrew,2013-06-22 14:15:00,
2013-06-22 07:20:00,56.6,-99.9,30.06,ENE,64,0.0,0.0,-999,0.00,,,0.00,homebrew,2013-06-22 14:20:00,
2013-06-22 07:30:00,57.0,-99.9,30.06,ENE,64,0.0,0.0,-999,0.00,,,0.00,homebrew,2013-06-22 14:30:00,
2013-06-22 07:35:00,57.4,-99.9,30.06,ENE,64,0.0,0.0,-999,0.00,,,0.00,homebrew,2013-06-22 14:35:00,
2013-06-22 07:45:00,57.8,-99.9,30.06,SW,228,1.9,3.5,-999,0.00,,,0.00,homebrew,2013-06-22 14:45:00,
2013-06-22 07:50:00,57.5,-99.9,30.05,SW,235,2.6,5.3,-999,0.00,,,0.00,homebrew,2013-06-22 14:50:00,
2013-06-22 07:55:00,57.2,-99.9,30.05,SW,229,2.5,5.0,-999,0.00,,,0.00,homebrew,2013-06-22 14:55:00,
2013-06-22 08:00:00,57.2,-99.9,30.05,SW,233,2.7,4.3,-999,0.00,,,0.00,homebrew,2013-06-22 15:00:00,
2013-06-22 08:05:00,57.5,-99.9,30.04,WSW,244,1.7,3.7,-999,0.00,,,0.00,homebrew,2013-06-22 15:05:00,
2013-06-22 08:10:00,58.3,-99.9,30.04,South,191,0.9,4.3,-999,0.00,,,0.00,homebrew,2013-06-22 15:10:00,
2013-06-22 08:20:00,58.8,-99.9,30.04,WSW,242,2.3,4.5,-999,0.00,,,0.00,homebrew,2013-06-22 15:20:00,
2013-06-22 08:30:00,59.5,-99.9,30.04,SSW,213,0.9,4.1,-999,0.00,,,0.00,homebrew,2013-06-22 15:30:00,
2013-06-22 08:35:00,59.7,-99.9,30.04,SW,233,1.0,5.4,-999,0.00,,,0.00,homebrew,2013-06-22 15:35:00,
2013-06-22 08:40:00,60.4,-99.9,30.04,SW,224,1.8,3.7,-999,0.00,,,0.00,homebrew,2013-06-22 15:40:00,
2013-06-22 08:45:00,60.5,-99.9,30.04,SW,230,2.7,5.2,-999,0.00,,,0.00,homebrew,2013-06-22 15:45:00,
2013-06-22 08:50:00,60.4,-99.9,30.04,WSW,252,0.4,4.1,-999,0.00,,,0.00,homebrew,2013-06-22 15:50:00,
2013-06-22 08:55:00,61.5,-99.9,30.04,WSW,254,0.0,0.0,-999,0.00,,,0.00,homebrew,2013-06-22 15:55:00,
2013-06-22 09:05:00,62.1,-99.9,30.04,WSW,243,1.4,3.7,-999,0.00,,,0.00,homebrew,2013-06-22 16:05:00,
2013-06-22 09:10:00,61.9,-99.9,30.04,West,280,1.9,3.6,-999,0.00,,,0.00,homebrew,2013-06-22 16:10:00,
2013-06-22 09:15:00,63.4,-99.9,30.03,SE,129,0.5,2.7,-999,0.00,,,0.00,homebrew,2013-06-22 16:15:00,
2013-06-22 09:25:00,63.8,-99.9,30.03,SW,230,2.7,7.2,-999,0.00,,,0.00,homebrew,2013-06-22 16:25:00,
2013-06-22 09:30:00,63.0,-99.9,30.03,SW,225,2.4,4.7,-999,0.00,,,0.00,homebrew,2013-06-22 16:30:00,
2013-06-22 09:35:00,62.9,-99.9,30.03,SSW,192,1.0,3.5,-999,0.00,,,0.00,homebrew,2013-06-22 16:35:00,
2013-06-22 09:40:00,63.7,-99.9,30.03,SSW,192,1.7,5.3,-999,0.00,,,0.00,homebrew,2013-06-22 16:40:00,
2013-06-22 09:45:00,63.8,-99.9,30.02,SW,215,0.9,3.4,-999,0.00,,,0.00,homebrew,2013-06-22 16:45:00,
2013-06-22 09:55:00,65.3,-99.9,30.02,SSW,201,2.2,5.3,-999,0.00,,,0.00,homebrew,2013-06-22 16:55:00,
2013-06-22 10:00:00,64.9,-99.9,30.02,WNW,282,1.5,6.6,-999,0.00,,,0.00,homebrew,2013-06-22 17:00:00,
2013-06-22 10:05:00,65.9,-99.9,30.02,SW,225,1.8,5.2,-999,0.00,,,0.00,homebrew,2013-06-22 17:05:00,
2013-06-22 10:15:00,65.6,-99.9,30.02,South,189,1.9,5.2,-999,0.00,,,0.00,homebrew,2013-06-22 17:15:00,
2013-06-22 10:20:00,66.2,-99.9,30.02,SW,231,1.5,5.2,-999,0.00,,,0.00,homebrew,2013-06-22 17:20:00,
2013-06-22 10:30:00,66.3,-99.9,30.01,South,175,1.0,4.8,-999,0.00,,,0.00,homebrew,2013-06-22 17:30:00,
2013-06-22 10:35:00,67.2,-99.9,30.01,SSE,168,0.8,4.5,-999,0.00,,,0.00,homebrew,2013-06-22 17:35:00,
2013-06-22 10:45:00,68.2,-99.9,30.01,SW,225,1.7,6.2,-999,0.00,,,0.00,homebrew,2013-06-22 17:45:00,
2013-06-22 10:50:00,68.2,-99.9,30.01,SSW,194,1.0,4.8,-999,0.00,,,0.00,homebrew,2013-06-22 17:50:00,
2013-06-22 10:55:00,68.2,-99.9,30.01,WSW,247,3.0,6.0,-999,0.00,,,0.00,homebrew,2013-06-22 17:55:00,
2013-06-22 11:00:00,68.1,-99.9,30.01,West,259,0.9,3.7,-999,0.00,,,0.00,homebrew,2013-06-22 18:00:00,
2013-06-22 11:05:00,69.7,-99.9,30.01,SSE,147,2.0,5.8,-999,0.00,,,0.00,homebrew,2013-06-22 18:05:00,
2013-06-22 11:10:00,69.8,-99.9,30.00,SSE,149,2.6,6.0,-999,0.00,,,0.00,homebrew,2013-06-22 18:10:00,
2013-06-22 11:20:00,70.7,-99.9,30.00,SSE,155,1.4,4.7,-999,0.00,,,0.00,homebrew,2013-06-22 18:20:00,
2013-06-22 11:25:00,71.0,-99.9,30.00,South,190,1.8,6.6,-999,0.00,,,0.00,homebrew,2013-06-22 18:25:00,
2013-06-22 11:35:00,69.3,-99.9,29.99,SSW,195,1.7,6.6,-999,0.00,,,0.00,homebrew,2013-06-22 18:35:00,
2013-06-22 11:40:00,70.6,-99.9,29.99,SE,128,2.2,5.0,-999,0.00,,,0.00,homebrew,2013-06-22 18:40:00,
2013-06-22 11:45:00,71.5,-99.9,29.99,SSW,208,1.3,4.2,-999,0.00,,,0.00,homebrew,2013-06-22 18:45:00,
2013-06-22 11:50:00,71.1,-99.9,29.99,ESE,120,1.5,5.0,-999,0.00,,,0.00,homebrew,2013-06-22 18:50:00,
2013-06-22 11:55:00,71.0,-99.9,29.99,SSW,192,0.7,3.7,-999,0.00,,,0.00,homebrew,2013-06-22 18:55:00,
2013-06-22 12:00:00,71.3,-99.9,29.99,SW,232,2.1,6.1,-999,0.00,,,0.00,homebrew,2013-06-22 19:00:00,
2013-06-22 12:10:00,74.0,-99.9,29.98,SW,231,3.0,5.8,-999,0.00,,,0.00,homebrew,2013-06-22 19:10:00,
2013-06-22 12:15:00,72.6,-99.9,29.98,WNW,290,3.7,6.6,-999,0.00,,,0.00,homebrew,2013-06-22 19:15:00,
2013-06-22 12:20:00,72.9,-99.9,29.98,SSE,166,1.9,5.1,-999,0.00,,,0.00,homebrew,2013-06-22 19:20:00,
2013-06-22 12:25:00,73.8,-99.9,29.98,SSW,195,1.6,4.1,-999,0.00,,,0.00,homebrew,2013-06-22 19:25:00,
2013-06-22 12:30:00,74.8,-99.9,29.98,SSW,192,1.7,6.1,-999,0.00,,,0.00,homebrew,2013-06-22 19:30:00,
2013-06-22 12:40:00,72.6,-99.9,29.97,SW,232,2.6,5.8,-999,0.00,,,0.00,homebrew,2013-06-22 19:40:00,
2013-06-22 12:45:00,73.1,-99.9,29.97,SSW,208,2.5,8.1,-999,0.00,,,0.00,homebrew,2013-06-22 19:45:00,
2013-06-22 12:50:00,72.3,-99.9,29.97,West,259,3.0,5.9,-999,0.00,,,0.00,homebrew,2013-06-22 19:50:00,
2013-06-22 13:00:00,73.4,-99.9,29.96,SSW,207,2.3,8.1,-999,0.00,,,0.00,homebrew,2013-06-22 20:00:00,
2013-06-22 13:05:00,72.3,-99.9,29.96,WSW,253,3.2,8.5,-999,0.00,,,0.00,homebrew,2013-06-22 20:05:00,
2013-06-22 13:15:00,72.9,-99.9,29.96,SW,235,2.8,5.5,-999,0.00,,,0.00,homebrew,2013-06-22 20:15:00,
2013-06-22 13:20:00,73.4,-99.9,29.96,SSW,199,1.3,5.0,-999,0.00,,,0.00,homebrew,2013-06-22 20:20:00,
2013-06-22 13:25:00,74.2,-99.9,29.96,SSW,195,1.6,6.1,-999,0.00,,,0.00,homebrew,2013-06-22 20:25:00,
2013-06-22 13:30:00,75.5,-99.9,29.96,SSE,164,0.8,4.0,-999,0.00,,,0.00,homebrew,2013-06-22 20:30:00,
2013-06-22 13:35:00,75.3,-99.9,29.95,SSW,207,2.6,5.7,-999,0.00,,,0.00,homebrew,2013-06-22 20:35:00,
2013-06-22 13:40:00,74.7,-99.9,29.95,SW,229,2.3,6.2,-999,0.00,,,0.00,homebrew,2013-06-22 20:40:00,
2013-06-22 13:50:00,74.1,-99.9,29.95,SSW,212,2.4,7.2,-999,0.00,,,0.00,homebrew,2013-06-22 20:50:00,
2013-06-22 13:55:00,76.1,-99.9,29.95,South,185,1.8,8.2,-999,0.00,,,0.00,homebrew,2013-06-22 20:55:00,
2013-06-22 14:05:00,75.7,-99.9,29.94,SSE,168,2.3,6.2,-999,0.00,,,0.00,homebrew,2013-06-22 21:05:00,
2013-06-22 14:10:00,75.5,-99.9,29.94,SSW,194,3.3,7.5,-999,0.00,,,0.00,homebrew,2013-06-22 21:10:00,
2013-06-22 14:15:00,75.7,-99.9,29.94,SSW,201,2.1,6.6,-999,0.00,,,0.00,homebrew,2013-06-22 21:15:00,
2013-06-22 14:20:00,75.8,-99.9,29.94,SW,236,2.4,7.1,-999,0.00,,,0.00,homebrew,2013-06-22 21:20:00,
2013-06-22 14:25:00,76.1,-99.9,29.94,South,182,1.9,7.0,-999,0.00,,,0.00,homebrew,2013-06-22 21:25:00,
2013-06-22 14:30:00,76.6,-99.9,29.94,South,181,2.9,8.0,-999,0.00,,,0.00,homebrew,2013-06-22 21:30:00,
2013-06-22 14:35:00,76.4,-99.9,29.94,SSW,212,2.5,5.3,-999,0.00,,,0.00,homebrew,2013-06-22 21:35:00,
2013-06-22 14:40:00,75.5,-99.9,29.93,SSW,209,1.8,5.2,-999,0.00,,,0.00,homebrew,2013-06-22 21:40:00,
2013-06-22 14:45:00,75.9,-99.9,29.93,South,188,2.5,11.2,-999,0.00,,,0.00,homebrew,2013-06-22 21:45:00,
2013-06-22 14:55:00,74.5,-99.9,29.93,WSW,250,2.6,6.5,-999,0.00,,,0.00,homebrew,2013-06-22 21:55:00,
2013-06-22 15:00:00,75.3,-99.9,29.93,WSW,238,2.2,4.8,-999,0.00,,,0.00,homebrew,2013-06-22 22:00:00,
2013-06-22 15:10:00,77.1,-99.9,29.92,WSW,251,2.7,6.9,-999,0.00,,,0.00,homebrew,2013-06-22 22:10:00,
2013-06-22 15:15:00,76.2,-99.9,29.92,WSW,256,3.1,6.4,-999,0.00,,,0.00,homebrew,2013-06-22 22:15:00,
2013-06-22 15:20:00,76.1,-99.9,29.92,SSE,160,2.0,7.2,-999,0.00,,,0.00,homebrew,2013-06-22 22:20:00,
2013-06-22 15:25:00,76.5,-99.9,29.92,WSW,237,2.7,7.3,-999,0.00,,,0.00,homebrew,2013-06-22 22:25:00,
2013-06-22 15:30:00,76.7,-99.9,29.91,SSW,202,2.6,6.9,-999,0.00,,,0.00,homebrew,2013-06-22 22:30:00,
2013-06-22 15:35:00,76.4,-99.9,29.91,WSW,237,1.6,3.8,-999,0.00,,,0.00,homebrew,2013-06-22 22:35:00,
2013-06-22 15:45:00,76.1,-99.9,29.91,West,271,3.1,7.8,-999,0.00,,,0.00,homebrew,2013-06-22 22:45:00,
2013-06-22 15:50:00,76.8,-99.9,29.91,WSW,240,2.8,6.2,-999,0.00,,,0.00,homebrew,2013-06-22 22:50:00,
2013-06-22 16:00:00,77.1,-99.9,29.91,SSW,205,2.0,5.8,-999,0.00,,,0.00,homebrew,2013-06-22 23:00:00,
2013-06-22 16:05:00,77.1,-99.9,29.90,WSW,240,3.0,7.4,-999,0.00,,,0.00,homebrew,2013-06-22 23:05:00,
2013-06-22 16:10:00,76.6,-99.9,29.90,SW,235,2.0,6.0,-999,0.00,,,0.00,homebrew,2013-06-22 23:10:00,
2013-06-22 16:15:00,77.7,-99.9,29.90,South,187,1.8,5.0,-999,0.00,,,0.00,homebrew,2013-06-22 23:15:00,
2013-06-22 16:20:00,78.0,-99.9,29.90,SSE,150,2.0,6.0,-999,0.00,,,0.00,homebrew,2013-06-22 23:20:00,
2013-06-22 16:25:00,78.0,-99.9,29.89,SW,235,2.1,5.2,-999,0.00,,,0.00,homebrew,2013-06-22 23:25:00,
2013-06-22 16:35:00,77.5,-99.9,29.89,South,170,0.9,5.8,-999,0.00,,,0.00,homebrew,2013-06-22 23:35:00,
2013-06-22 16:40:00,79.1,-99.9,29.89,SW,221,1.7,3.9,-999,0.00,,,0.00,homebrew,2013-06-22 23:40:00,
2013-06-22 16:50:00,78.5,-99.9,29.88,West,277,2.4,6.1,-999,0.00,,,0.00,homebrew,2013-06-22 23:50:00,
2013-06-22 16:55:00,77.5,-99.9,29.88,SW,225,2.2,5.5,-999,0.00,,,0.00,homebrew,2013-06-22 23:55:00,
2013-06-22 17:00:00,77.4,-99.9,29.88,SSW,202,2.8,7.9,-999,0.00,,,0.00,homebrew,2013-06-23 00:00:00,
2013-06-22 17:05:00,76.6,-99.9,29.88,SSW,192,2.7,7.3,-999,0.00,,,0.00,homebrew,2013-06-23 00:05:00,
2013-06-22 17:10:00,77.0,-99.9,29.88,SSW,192,0.5,2.1,-999,0.00,,,0.00,homebrew,2013-06-23 00:10:00,
2013-06-22 17:15:00,77.4,-99.9,29.87,South,180,1.7,5.0,-999,0.00,,,0.00,homebrew,2013-06-23 00:15:00,
2013-06-22 17:20:00,78.1,-99.9,29.87,SSE,161,1.3,3.5,-999,0.00,,,0.00,homebrew,2013-06-23 00:20:00,
2013-06-22 17:25:00,79.1,-99.9,29.87,South,190,0.5,2.9,-999,0.00,,,0.00,homebrew,2013-06-23 00:25:00,
2013-06-22 17:30:00,79.8,-99.9,29.87,SSE,149,1.2,4.4,-999,0.00,,,0.00,homebrew,2013-06-23 00:30:00,
2013-06-22 17:40:00,79.1,-99.9,29.86,WSW,247,1.5,3.6,-999,0.00,,,0.00,homebrew,2013-06-23 00:40:00,
2013-06-22 17:45:00,78.9,-99.9,29.86,SW,219,1.2,4.8,-999,0.00,,,0.00,homebrew,2013-06-23 00:45:00,
2013-06-22 17:55:00,77.9,-99.9,29.86,SSW,194,0.4,3.1,-999,0.00,,,0.00,homebrew,2013-06-23 00:55:00,
2013-06-22 18:00:00,78.6,-99.9,29.86,South,173,1.2,4.7,-999,0.00,,,0.00,homebrew,2013-06-23 01:00:00,
2013-06-22 18:05:00,77.2,-99.9,29.86,SSW,209,2.9,6.6,-999,0.00,,,0.00,homebrew,2013-06-23 01:05:00,
2013-06-22 18:10:00,76.2,-99.9,29.85,SW,230,1.7,4.6,-999,0.00,,,0.00,homebrew,2013-06-23 01:10:00,
2013-06-22 18:15:00,76.2,-99.9,29.85,SSE,161,1.1,5.9,-999,0.00,,,0.00,homebrew,2013-06-23 01:15:00,
2013-06-22 18:20:00,77.0,-99.9,29.85,SW,220,0.6,3.5,-999,0.00,,,0.00,homebrew,2013-06-23 01:20:00,
2013-06-22 18:30:00,76.1,-99.9,29.85,ESE,114,0.6,2.2,-999,0.00,,,0.00,homebrew,2013-06-23 01:30:00,
2013-06-22 18:35:00,75.1,-99.9,29.85,WSW,253,3.0,5.0,-999,0.00,,,0.00,homebrew,2013-06-23 01:35:00,
2013-06-22 18:45:00,74.3,-99.9,29.85,SE,143,0.4,2.2,-999,0.00,,,0.00,homebrew,2013-06-23 01:45:00,
2013-06-22 18:50:00,74.3,-99.9,29.84,ENE,74,0.0,0.0,-999,0.00,,,0.00,homebrew,2013-06-23 01:50:00,
2013-06-22 19:00:00,74.2,-99.9,29.84,SSW,198,1.2,4.5,-999,0.00,,,0.00,homebrew,2013-06-23 02:00:00,
2013-06-22 19:05:00,74.2,-99.9,29.84,ESE,119,0.5,2.8,-999,0.00,,,0.00,homebrew,2013-06-23 02:05:00,
2013-06-22 19:10:00,74.2,-99.9,29.84,WSW,248,1.9,4.3,-999,0.00,,,0.00,homebrew,2013-06-23 02:10:00,
2013-06-22 19:15:00,74.2,-99.9,29.84,WSW,241,0.4,2.5,-999,0.00,,,0.00,homebrew,2013-06-23 02:15:00,
2013-06-22 19:20:00,73.9,-99.9,29.84,WSW,239,0.3,2.5,-999,0.00,,,0.00,homebrew,2013-06-23 02:20:00,
2013-06-22 19:25:00,73.9,-99.9,29.84,SE,139,0.3,2.5,-999,0.00,,,0.00,homebrew,2013-06-23 02:25:00,
2013-06-22 19:35:00,73.6,-99.9,29.84,West,273,0.5,2.0,-999,0.00,,,0.00,homebrew,2013-06-23 02:35:00,
2013-06-22 19:40:00,73.7,-99.9,29.84,WNW,297,0.9,3.4,-999,0.00,,,0.00,homebrew,2013-06-23 02:40:00,
2013-06-22 19:50:00,73.2,-99.9,29.84,NW,319,0.1,1.6,-999,0.00,,,0.00,homebrew,2013-06-23 02:50:00,
2013-06-22 19:55:00,73.3,-99.9,29.83,West,270,0.8,4.5,-999,0.00,,,0.00,homebrew,2013-06-23 02:55:00,
2013-06-22 20:00:00,73.3,-99.9,29.83,NW,310,0.4,2.5,-999,0.00,,,0.00,homebrew,2013-06-23 03:00:00,
2013-06-22 20:05:00,73.1,-99.9,29.83,NNW,338,0.0,0.5,-999,0.00,,,0.00,homebrew,2013-06-23 03:05:00,
2013-06-22 20:10:00,73.0,-99.9,29.83,NNW,337,0.0,0.0,-999,0.00,,,0.00,homebrew,2013-06-23 03:10:00,
2013-06-22 20:15:00,72.5,-99.9,29.83,NNW,337,0.0,0.0,-999,0.00,,,0.00,homebrew,2013-06-23 03:15:00,
2013-06-22 20:20:00,72.5,-99.9,29.83,NNW,337,0.0,0.0,-999,0.00,,,0.00,homebrew,2013-06-23 03:20:00,
2013-06-22 20:25:00,72.5,-99.9,29.84,NNW,337,0.0,0.0,-999,0.00,,,0.00,homebrew,2013-06-23 03:25:00,
2013-06-22 20:30:00,72.4,-99.9,29.84,WSW,255,0.1,1.1,-999,0.00,,,0.00,homebrew,2013-06-23 03:30:00,
2013-06-22 20:40:00,72.4,-99.9,29.84,NE,45,0.0,0.0,-999,0.00,,,0.00,homebrew,2013-06-23 03:40:00,
2013-06-22 20:45:00,72.4,-99.9,29.84,NE,45,0.0,0.0,-999,0.00,,,0.00,homebrew,2013-06-23 03:45:00,
2013-06-22 20:55:00,72.1,-99.9,29.83,NE,45,0.0,0.0,-999,0.00,,,0.00,homebrew,2013-06-23 03:55:00,
2013-06-22 21:00:00,72.0,-99.9,29.83,NE,45,0.0,0.0,-999,0.00,,,0.00,homebrew,2013-06-23 04:00:00,
2013-06-22 21:05:00,71.8,-99.9,29.83,NE,45,0.0,0.0,-999,0.00,,,0.00,homebrew,2013-06-23 04:05:00,
2013-06-22 21:10:00,71.6,-99.9,29.83,NE,45,0.0,0.0,-999,0.00,,,0.00,homebrew,2013-06-23 04:10:00,
2013-06-22 21:15:00,71.4,-99.9,29.83,SW,228,1.3,5.1,-999,0.00,,,0.00,homebrew,2013-06-23 04:15:00,
2013-06-22 21:20:00,71.2,-99.9,29.83,NW,319,0.0,3.3,-999,0.00,,,0.00,homebrew,2013-06-23 04:20:00,
2013-06-22 21:25:00,70.9,-99.9,29.83,SSW,195,0.6,2.3,-999,0.00,,,0.00,homebrew,2013-06-23 04:25:00,
2013-06-22 21:30:00,70.5,-99.9,29.83,ESE,102,0.4,2.9,-999,0.00,,,0.00,homebrew,2013-06-23 04:30:00,
2013-06-22 21:35:00,70.0,-99.9,29.83,NW,318,0.7,3.7,-999,0.00,,,0.00,homebrew,2013-06-23 04:35:00,
2013-06-22 21:45:00,69.0,-99.9,29.83,NW,306,0.0,0.0,-999,0.00,,,0.00,homebrew,2013-06-23 04:45:00,
2013-06-22 21:50:00,68.5,-99.9,29.83,NW,306,0.0,0.0,-999,0.00,,,0.00,homebrew,2013-06-23 04:50:00,
2013-06-22 21:55:00,68.0,-99.9,29.83,NW,306,0.0,0.0,-999,0.00,,,0.00,homebrew,2013-06-23 04:55:00,
2013-06-22 22:00:00,67.8,-99.9,29.83,NW,306,0.0,0.0,-999,0.00,,,0.00,homebrew,2013-06-23 05:00:00,
2013-06-22 22:05:00,67.3,-99.9,29.83,NW,306,0.0,0.0,-999,0.00,,,0.00,homebrew,2013-06-23 05:05:00,
2013-06-22 22:10:00,66.8,-99.9,29.83,NW,306,0.0,0.0,-999,0.00,,,0.00,homebrew,2013-06-23 05:10:00,
2013-06-22 22:15:00,66.4,-99.9,29.83,NW,306,0.0,0.0,-999,0.00,,,0.00,homebrew,2013-06-23 05:15:00,
2013-06-22 22:20:00,66.6,-99.9,29.83,NW,306,0.0,0.0,-999,0.00,,,0.00,homebrew,2013-06-23 05:20:00,
2013-06-22 22:25:00,66.7,-99.9,29.83,NW,306,0.0,0.0,-999,0.00,,,0.00,homebrew,2013-06-23 05:25:00,
2013-06-22 22:35:00,66.3,-99.9,29.83,NW,326,0.0,0.0,-999,0.00,,,0.00,homebrew,2013-06-23 05:35:00,
2013-06-22 22:40:00,66.3,-99.9,29.83,NW,326,0.0,0.0,-999,0.00,,,0.00,homebrew,2013-06-23 05:40:00,
2013-06-22 22:50:00,65.9,-99.9,29.83,NW,326,0.0,0.0,-999,0.00,,,0.00,homebrew,2013-06-23 05:50:00,
2013-06-22 22:55:00,65.4,-99.9,29.83,SW,226,0.6,3.1,-999,0.00,,,0.00,homebrew,2013-06-23 05:55:00,
2013-06-22 23:05:00,65.4,-99.9,29.83,North,7,0.0,0.0,-999,0.00,,,0.00,homebrew,2013-06-23 06:05:00,
2013-06-22 23:10:00,65.0,-99.9,29.83,NNE,24,0.0,0.0,-999,0.00,,,0.00,homebrew,2013-06-23 06:10:00,
2013-06-22 23:20:00,64.9,-99.9,29.83,North,11,0.0,0.0,-999,0.00,,,0.00,homebrew,2013-06-23 06:20:00,
2013-06-22 23:25:00,64.9,-99.9,29.82,North,11,0.0,0.0,-999,0.00,,,0.00,homebrew,2013-06-23 06:25:00,
2013-06-22 23:30:00,64.8,-99.9,29.82,North,11,0.0,0.0,-999,0.00,,,0.00,homebrew,2013-06-23 06:30:00,
2013-06-22 23:40:00,64.2,-99.9,29.82,North,11,0.0,0.0,-999,0.00,,,0.00,homebrew,2013-06-23 06:40:00,
2013-06-22 23:45:00,63.9,-99.9,29.82,North,11,0.0,0.0,-999,0.00,,,0.00,homebrew,2013-06-23 06:45:00,
2013-06-22 23:50:00,63.8,-99.9,29.82,North,11,0.0,0.0,-999,0.00,,,0.00,homebrew,2013-06-23 06:50:00,
2013-06-22 23:55:00,63.8,-99.9,29.81,South,181,0.5,1.4,-999,0.00,,,0.00,homebrew,2013-06-23 06:55:00,